Regional Weather Roundup
Issued by NWS Wakefield, VA

Home | Current Version | Previous Version | Graphics & Text | Print | Product List | Glossary On
Versions: 1 2 3 4 5 6 7 8 9 10 11 12 13 14 15 16 17 18 19 20 21 22 23 24 25 26 27
000
ASUS41 KAKQ 231915
RWRAKQ

REGIONAL WEATHER ROUNDUP
NATIONAL WEATHER SERVICE WAKEFIELD VA
200 PM EST THU NOV 23 2017

Note: "fair" indicates few or no clouds below 12,000 feet with no
significant weather and/or obstructions to visibility. * = Denotes
station may not report precipitation (e.g., rain,snow,etc.),
thunder or fog.

VAZ042-051-052>054-056-232000-
NORTHERN VIRGINIA

CITY           SKY/WX    TMP DP  RH WIND       PRES   REMARKS
WASH NATIONAL  MOSUNNY   45  21  38 VRB3      30.10F
DULLES         SUNNY     44  22  41 SW7       30.09F
FORT BELVOIR   SUNNY     46  20  36 SW3       30.09F
QUANTICO       NOT AVBL
FREDERICKSBRG* SUNNY     45  25  45 SW6       30.09F
STAFFORD*      SUNNY     44  22  41 W6        30.13F
WARRENTON      NOT AVBL
CULPEPER*      SUNNY     44  23  43 SW3       30.10F
MANASSAS*      SUNNY     45  22  40 NW7       30.09F
LEESBURG*      SUNNY     45  27  49 CALM      30.09F
WINCHESTER     SUNNY     41  23  48 S5        30.06F
FRONT ROYAL*   CLEAR     43  23  45 MISG      30.06F
LURAY*         CLEAR     43  27  52 CALM      30.05F
$$

VAZ048-049-060>072-079>083-232000-
CENTRAL AND SOUTH CENTRAL VIRGINIA

CITY           SKY/WX    TMP DP  RH WIND       PRES   REMARKS
RICHMOND       MOSUNNY   43  24  47 VRB5      30.11F
CHESTERFIELD*  NOT AVBL
PETERSBURG*    SUNNY     45 -18   6 CALM      30.11F
HANOVER        SUNNY     44  23  43 VRB6      30.12F
TAPPAHANNOCK*    N/A    N/A N/A N/A MISG        N/A
QUINTON*       FAIR      43  24  48 CALM      30.11F
CHARLOTTSVILLE SUNNY     45  23  42 SE6       30.06F
GORDONSVILLE*  CLEAR     44  25  47 W3        30.08F
ORANGE*        SUNNY     43  25  49 CALM      30.08F
LOUISA*        SUNNY     43  23  44 S6        30.12F
BUMPASS*       FAIR      43  21  42 SW3       30.09F
FARMVILLE*     SUNNY     46  28  48 CALM      30.09F
CREWE*         FAIR      43  26  51 CALM      30.10F
FORT PICKETT*  FAIR      45  24  43 CALM      30.09F
CHASE CITY*    FAIR      47  25  43 CALM      30.09F
CLARKSVILLE*   FAIR      45  27  49 S3        30.09F
SOUTH HILL*    SUNNY     46  27  48 CALM      30.14F
LAWRENCEVILLE* FAIR      47  25  42 N3        30.09F
EMPORIA*       MOSUNNY   45  27  49 CALM      30.11F
$$

VAZ088>098-232000-
SOUTHEAST VIRGINIA

CITY           SKY/WX    TMP DP  RH WIND       PRES   REMARKS
NORFOLK        CLOUDY    45  30  55 CALM      30.10F
VIRGINIA BEACH PTSUNNY   44  31  60 NW6       30.09F
NORFOLK NAVAL  CLOUDY    46  29  51 MISG      30.11F
WEST POINT*    CLOUDY    44  24  45 W5        30.13F
SALUDA*        FAIR      43  26  51 N5        30.11F
NEWPORT NEWS   CLOUDY    46  25  43 NW6       30.11F
LANGLEY AFB    PTSUNNY   44  29  56 NE3       30.10F
FORT EUSTIS    CLOUDY    44  25  47 W3        30.08F
WILLIAMSBURG*  MOSUNNY   46  28  49 CALM      30.12F
HR EXEC AP*    NOT AVBL
FRANKLIN*      MOSUNNY   46  27  47 W3        30.11F
US460-WAKEFLD  MOSUNNY   46  27  47 CALM      30.11F
$$

VAZ020-022-025-037-045-232000-
WEST CENTRAL AND SOUTHWEST VIRGINIA

CITY           SKY/WX    TMP DP  RH WIND       PRES   REMARKS
STAUNTON*      SUNNY     42  22  46 CALM      30.05F
WAYNESBORO*    CLEAR     44  23  44 S5        30.03F
HOT SPRINGS VA SUNNY     40   8  26 W8        29.97F
LYNCHBURG      SUNNY     44  24  45 S8        30.07F
DANVILLE       SUNNY     45  27  49 VRB3      30.09F
SOUTH BOSTON*  FAIR      47  24  39 NW3       30.09F
MARTINSVILLE   SUNNY     49  25  38 SE5       30.09F
ROANOKE        SUNNY     46  24  42 SE5       30.06F
BLACKSBURG     SUNNY     47  19  32 CALM      30.04F
DUBLIN*        SUNNY     50  19  29 CALM      30.03F
MARION*        SUNNY     51  15  23 SW10G16   30.02F
HILLSVILLE*    SUNNY     48  23  36 SE5       30.00F
RICHLANDS*     FAIR      49  13  23 SW6       30.01F
WISE*          SUNNY     50  19  29 SW10      30.01F
ABINGDON*      SUNNY     53  25  33 W9        30.02F
$$

MDZ021>025-VAZ099-100-232000-
SOUTHERN MARYLAND AND THE DELMARVA PENINSULA

CITY           SKY/WX    TMP DP  RH WIND       PRES   REMARKS
PATUXENT RIVER SUNNY     42  23  46 CALM      30.09F
BAY BRIDGE APT SUNNY     41  23  48 CALM      30.10F
LEONARDTOWN    SUNNY     43  23  45 W6        30.11F
DOVER          SUNNY     43  30  61 SW6       30.08F
GEORGETOWN     SUNNY     41  21  44 CALM      30.09F
EASTON         MOSUNNY   43  23  45 NW6       30.13F
CAMBRIDGE      SUNNY     41  25  52 W8        30.10F
SALISBURY      CLOUDY    41  25  53 W9        30.09F
OCEAN CITY     CLOUDY    41  25  53 W6        30.10F
WALLOPS ISLAND CLOUDY    41  26  55 MISG      30.10F
ACCOMACK*      MOSUNNY   42  31  62 W5        30.10F
$$

NCZ012>017-030>032-232000-
NORTH CENTRAL AND EASTERN NORTH CAROLINA

CITY           SKY/WX    TMP DP  RH WIND       PRES   REMARKS
ROANOKE RAPIDS FAIR      46  28  49 N3        30.11F
RALEIGH        PTSUNNY   47  25  42 VRB3      30.09F
ELIZABETH CITY PTSUNNY   48  35  60 N7        30.10F
AHOSKIE*       MOSUNNY   44  29  56 CALM      30.11F
EDENTON*       PTSUNNY   48  37  64 CALM      30.11F
CURRITUCK*     PTSUNNY   45  34  65 N6        30.11F
KILL DEVIL HLS PTSUNNY   46  35  65 N6        30.08F
MANTEO         PTSUNNY   47  36  67 N9        30.10S
CAPE HATTERAS  CLOUDY    52  42  69 N10G18    30.06F
TARBORO*       NOT AVBL
GOLDSBORO      CLOUDY    48  33  56 N8        30.07F
WASHINGTON     CLOUDY    47  35  63 N5        30.11F
GREENVILLE     CLOUDY    46  34  61 NE5       30.11F
NEW BERN       CLOUDY    48  40  73 N10       30.08F
WILMINGTON     CLOUDY    50  39  66 N8        30.06F
$$

VAZ048-232000-
ELSEWHERE

CITY           SKY/WX    TMP DP  RH WIND       PRES   REMARKS
HARRISBURG PA  SUNNY     41  23  48 W6        30.06F
BALTIMORE      MOSUNNY   44  23  43 NW9       30.08F
ANNAPOLIS      NOT AVBL
ANDREWS AFB    SUNNY     44  21  40 W5        30.08F
PHILADELPHIA   MOSUNNY   41  18  39 NW8       30.07F
HENDERSON NC   MOSUNNY   46  24  43 CALM      30.09F
GREENSBORO     PTSUNNY   48  26  42 CALM      30.06F
ROCKY MOUNT    CLOUDY    47  31  53 NW5       30.10F
$$

VAZ100-232000-
MARINE

STATION/POSITION TIME  TEMP    WIND        PRES    WAVE   SWELL
                       AIR SEA DIR/SP/G            HT/PER HT/PER
                 (UTC) (F)     (DEG/KT/KT) (MB)    (FT/S) (FT/S)
BRANDYWINE LGT   1836   38     320/  6/ 10 1019.4F
CAPE MAY NJ      1848   40 51  330/  5/ 12 1018.5S
LEWES DE         1848   38 49   10/  1/  2 1018.9F
15NM E FENWICK I 1850   39 57  290/  8/ 12 1019.5F   3/11   3/11
OCEAN-CITY-INLET 1848   39 53  310/  4/  5 1019.4F
WACHAPREAGUE VA  1848   43 49  280/  2/  5 1019.3F
THOMAS POINT MD  1900   40 51  130/  4/  5   N/A
GOOSES REEF MD   1850   40     100/  4/  6 1028.3F
COVE POINT MD    1848   39     120/  3/  5 1019.8F
SOLOMONS ISLAND  1848   40 53  100/  3/  5 1018.8F
BISHOPS HEAD MD  1848   38 47  280/  8/ 10 1019.6F
PINEY POINT MD   1848          340/  6/  7   N/A
POTOMAC MD       1850   40     290/  6/  8 1018.9F
CAMBRIDGE MD     1836   43 49              1020.1F
LEWISETTA VA     1848   40 50   20/  5/  9 1019.4F
RAPPAHANNOCK LGT 1848          280/  4/  6 1019.9F
STINGRAY PT      1850   42     290/  2/  4 1019.6F
YORK RVR RNG VA  1848   42      20/  3/  5 1020.0F
YORKTOWN VA      1848   43 54  320/  6/  8 1019.1F
JAMESTOWN VA     1850          300/  4/  8   N/A
DOMINION TERM VA 1848   43     300/  5/  6 1019.7F
KIPTOPEKE VA     1848      52  340/  8/ 10   N/A
CAPE HENRY VA    1848   43     330/  3/  5   N/A
WILLOUBY STN VA  1836   44     160/  2/  2 1019.5F
S CRANEY ISL VA  1848   44     330/  4/  6 1019.4F
CAPE HENRY BUOY  1900      60                N/A     3/10   2/11
1ST LANDING BUOY 1850   43     360/  4/  6 1019.6F
CAPE CHARLES BUO 1851      58                N/A     4/10   2/11
64NM E OF VA BCH 1850   47 60  330/ 12/ 17 1019.0F   6/ 9   5/ 9
DUCK PIER NC     1848   45 58   10/ 10/ 16 1018.5F
44100 DUCK FRF   1845      61                N/A     4/ 9   2/11
44056 DUCK FRF   1900      60                N/A     4/11   2/11
OREGON INLET NC  1836   49 58  350/  8/ 13 1018.6F
HATTERAS NC      1848   50 58   20/ 16/ 18 1017.6F
DIAMOND SHLS NC  1900   56 72  360/ 17/ 21 1017.3
CAPE LOOKOUT NC  1900           20/ 14/ 19 1017.7F
$$




USA.gov is the U.S. government's official web portal to all federal, state and local government web resources and services.